Regional Weather Roundup
Issued by NWS

Home | Current Version | Previous Version | Graphics & Text | Print | Product List | Glossary On
Versions: 1 2 3 4 5 6 7 8 9 10 11 12 13 14 15 16 17 18 19 20 21 22 23 24 25 26 27 28 29 30 31 32 33 34 35 36 37 38 39 40 41 42 43 44 45 46 47 48 49 50
000
ASUS45 KPSR 032010
RWRAZ

ARIZONA REGIONAL HOURLY WEATHER ROUNDUP
NATIONAL WEATHER SERVICE PHOENIX AZ
100 PM MST TUE MAR 03 2015

NOTE: FAIR INDICATES FEW OR NO CLOUDS BELOW 12,000 FEET WITH NO
SIGNIFICANT WEATHER AND/OR OBSTRUCTIONS TO VISIBILITY.

AZZ001>003-036-032100-
NORTHWEST ARIZONA

CITY           SKY/WX    TMP DP  RH WIND       PRES   REMARKS
BULLHEAD CITY  FAIR      61  41  48 S5        29.95F
KINGMAN        CLOUDY    48  35  60 NW10      29.92F
$$

AZZ004>008-015-016-018-032100-
NORTH CENTRAL ARIZONA

CITY           SKY/WX    TMP DP  RH WIND       PRES   REMARKS
GRAND CANYON   MIX PCPN  32  25  75 SW8       29.89F WCI  25
PRESCOTT       PTSUNNY   43  26  51 SW9       29.91F
FLAGSTAFF      NOT AVBL
PAYSON         PTSUNNY   45  32  61 VRB5G15   29.92F
PAGE           PTSUNNY   46  28  49 SW7       29.84F
$$

AZZ009>014-017-032100-
NORTHEAST ARIZONA

CITY           SKY/WX    TMP DP  RH WIND       PRES   REMARKS
WINSLOW        FAIR      50  26  39 SW15G25   29.87F
SAINT JOHNS    FAIR      47  18  31 SW16G24   29.86F
WINDOW ROCK    PTSUNNY   41  27  57 SW16      29.85F
SHOW LOW       PTSUNNY   39  27  60 S13G20    29.91F WCI  32
$$

AZZ023-032100-
GREATER PHOENIX AREA

CITY           SKY/WX    TMP DP  RH WIND       PRES   REMARKS
PHOENIX        PTSUNNY   62  44  51 SE7       29.89F
BUCKEYE        FAIR      59  48  67 N3        29.92F
GLENDALE       PTSUNNY   63  45  51 SW3       29.92F
LUKE AFB       FAIR      61  46  58 SE5       29.89F
DEER VALLEY    CLOUDY    60  41  49 CALM      29.89F
SCOTTSDALE     PTSUNNY   60  40  47 VRB3      29.91F
MESA-GATEWAY   MOSUNNY   59  45  58 CALM      29.93F
CHANDLER       PTSUNNY   61  45  55 SW8       29.91F
$$

AZZ027-028-032100-
SOUTHWEST MARICOPA COUNTY AND PINAL COUNTY

CITY           SKY/WX    TMP DP  RH WIND       PRES   REMARKS
CASA GRANDE    FAIR      55  46  71 SE3       29.92F
GILA BEND      MOSUNNY   64  48  55 CALM      29.91F
$$

AZZ503-504-507>509-032100-
SOUTHEAST ARIZONA

CITY           SKY/WX    TMP DP  RH WIND       PRES   REMARKS
TUCSON         FAIR      60  37  42 VRB5      29.92F
DAVIS-MONTHAN  FAIR      58  37  44 SE3       29.90F
RYAN FIELD       N/A     61  37  41 W10       29.92F
NOGALES        FAIR      61  28  28 SW13G20   29.89F
SIERRA VISTA   MOSUNNY   59  25  27 S14G20    29.89F
DOUGLAS        FAIR      61  37  41 SW17G23   29.89F
SAFFORD        FAIR      58  36  43 NW7       29.88F
$$

AZZ020-021-025-026-031-032100-
SOUTHWEST ARIZONA

CITY           SKY/WX    TMP DP  RH WIND       PRES   REMARKS
YUMA           PTSUNNY   65  42  43 W7        29.91F
$$

CAZ031-033-041-043-047-048-061-032100-
SOUTHERN CALIFORNIA

CITY           SKY/WX    TMP DP  RH WIND       PRES   REMARKS
DOWNTOWN L.A.  FAIR      64  37  36 VRB3      29.94F
L.A. AIRPORT   FAIR      61  41  47 W10       29.95F
SAN DIEGO      FAIR      63  39  41 SW5       29.95F
BURBANK        FAIR      61  36  39 SE3       29.93F
ONTARIO        FAIR      60  37  42 W5        29.93F
RIVERSIDE      FAIR      61  36  39 N3        29.94F
PALM SPRINGS   FAIR      64  37  36 CALM      29.94F
EL CENTRO NAS  FAIR      63  41  44 N3        29.93F
IMPERIAL       FAIR      63  44  50 NW6       29.93F
BLYTHE         FAIR      60  43  53 SW5       29.93F
$$

NVZ020-UTZ003-032100-
SOUTHERN NEVADA-UTAH

CITY           SKY/WX    TMP DP  RH WIND       PRES   REMARKS
LAS VEGAS      FAIR      57  34  41 CALM      29.87F
SALT LAKE CITY FAIR      35  25  66 NW14      29.88S WCI  26
$$

NMZ009-TXZ055-032100-
NEW MEXICO-WEST TEXAS

CITY           SKY/WX    TMP DP  RH WIND       PRES   REMARKS
ALBUQUERQUE    FAIR      48  27  44 CALM      29.84F
EL PASO        CLOUDY    57  47  69 SW10      29.89F
$$


........................KEY........................
SKY/WX - SKY CONDITION/WEATHER
TMP    - TEMPERATURE IN FAHRENHEIT
DP     - DEW POINT IN FAHRENHEIT
RH     - RELATIVE HUMIDITY IN PERCENT
WIND   - DIRECTION AND SPEED IN MILES PER HOUR (MPH)
VRB    - VARIABLE WIND DIRECTION
PRES   - MEAN SEA LEVEL PRESSURE IN INCHES OF MERCURY
         F - FALLING PRESSURE   R - RISING PRESSURE
         S - STEADY PRESSURE
VSB    - VISIBILITY IN MILES
HX     - HEAT INDEX IN FAHRENHEIT
WCI    - WIND CHILL INDEX IN FAHRENHEIT
TC     - TEMPERATURE IN CELSIUS WHICH IS ALSO KNOWN AS
         TEMPERATURE IN CENTIGRADE
AFB    - AIR FORCE BASE
         LUKE AFB IS LUKE AIR FORCE BASE
         DAVIS-MONTHAN IS DAVIS-MONTHAN AIR FORCE BASE
NAS    - NAVAL AIR STATION
         EL CENTRO NAS IS EL CENTRO NAVAL AIR STATION
N/A    - NOT AVAILABLE



USA.gov is the U.S. government's official web portal to all federal, state and local government web resources and services.